nws-alerts: Checking more than four warning/county codes can delay the loading of your pages. You should use a cron job to get the data.
EllijayWeather Station Historical Data
Daily Summary for October 26, 2018 Units:  English    Metric   Both
Daily Weekly Monthly Yearly Custom
  High: Low: Average:
Temperature: 53.6 °F 45.3 °F 49.9 °F
Dew Point: 43.3 °F 32.9 °F 36.1 °F
Humidity: 68% 55% 59%
Wind Speed: 8.1mph 0mph 0.4mph
Wind Gust: 10mph - -
Wind- - SE
Pressure: 30.00 in 29.72 in -
Precipitation: 1.62 in    
Historical Graphs
 
 
Tabular Data for October 26, 2018
Time Temperature Dew Point Pressure Wind Wind Speed Wind Gust Humidity Rainfall Rate (Hourly) solar
00:04 45.3 °F 33.4 °F 30.00 in Calm     63% 0.07 in meteobridge W/m2
00:09 45.3 °F 33.4 °F 30.00 in Calm     63% 0.07 in meteobridge W/m2
00:14 45.3 °F 33.4 °F 29.99 in Calm     63% 0.07 in meteobridge W/m2
00:19 45.5 °F 33.3 °F 29.99 in Calm     62% 0.08 in meteobridge W/m2
00:24 45.5 °F 33.3 °F 29.98 in Calm     62% 0.08 in meteobridge W/m2
00:29 45.7 °F 33.4 °F 29.98 in Calm     62% 0.1 in meteobridge W/m2
00:34 45.7 °F 33.4 °F 29.98 in Calm     62% 0.1 in meteobridge W/m2
00:39 45.7 °F 33.1 °F 29.98 in Calm     61% 0.1 in meteobridge W/m2
00:44 45.9 °F 33.3 °F 29.97 in Calm   1 mph 61% 0.11 in meteobridge W/m2
00:49 45.9 °F 33.3 °F 29.97 in Calm   1 mph 61% 0.1 in meteobridge W/m2
00:54 45.9 °F 33.3 °F 29.96 in Calm   1 mph 61% 0.14 in meteobridge W/m2
00:59 46 °F 33.3 °F 29.96 in Calm   1 mph 61% 0.2 in meteobridge W/m2
01:04 46 °F 33.3 °F 29.96 in Calm   1 mph 61% 0.25 in meteobridge W/m2
01:09 46 °F 32.9 °F 29.96 in Calm   4 mph 60% 0.26 in meteobridge W/m2
01:14 46 °F 33.3 °F 29.95 in Calm   1 mph 61% 0.28 in meteobridge W/m2
01:19 46.2 °F 33.1 °F 29.94 in Calm   1 mph 60% 0.31 in meteobridge W/m2
01:24 46.2 °F 33.1 °F 29.95 in Calm     60% 0.31 in meteobridge W/m2
01:29 46.2 °F 33.1 °F 29.95 in SE 2 mph 5 mph 60% 0.3 in meteobridge W/m2
01:34 46.2 °F 33.1 °F 29.94 in Calm   4 mph 60% 0.3 in meteobridge W/m2
01:39 46.2 °F 33.1 °F 29.93 in South 2 mph 5 mph 60% 0.31 in meteobridge W/m2
01:44 46.2 °F 33.1 °F 29.93 in Calm   8 mph 60% 0.31 in meteobridge W/m2
01:49 46.4 °F 33.3 °F 29.93 in Calm   4 mph 60% 0.32 in meteobridge W/m2
01:54 46.6 °F 33.4 °F 29.93 in Calm   2 mph 60% 0.29 in meteobridge W/m2
01:59 46.6 °F 33.1 °F 29.92 in Calm     59% 0.22 in meteobridge W/m2
02:04 46.8 °F 33.6 °F 29.91 in Calm   5 mph 60% 0.17 in meteobridge W/m2
02:09 46.9 °F 33.4 °F 29.91 in ESE 2 mph 4 mph 59% 0.16 in meteobridge W/m2
02:14 46.9 °F 33.4 °F 29.91 in SE 4 mph 5 mph 59% 0.13 in meteobridge W/m2
02:19 47.1 °F 33.4 °F 29.90 in SE 0.9 mph 6 mph 59% 0.1 in meteobridge W/m2
02:24 47.1 °F 33.4 °F 29.90 in Calm   1 mph 59% 0.09 in meteobridge W/m2
02:29 47.3 °F 33.6 °F 29.90 in SE 6 mph 6 mph 59% 0.11 in meteobridge W/m2
02:34 47.3 °F 33.6 °F 29.90 in Calm   10 mph 59% 0.13 in meteobridge W/m2
02:39 47.5 °F 33.8 °F 29.89 in SE 2 mph 4 mph 59% 0.13 in meteobridge W/m2
02:44 47.5 °F 33.8 °F 29.89 in SE 2 mph 6 mph 59% 0.11 in meteobridge W/m2
02:49 47.7 °F 34 °F 29.90 in Calm   6 mph 59% 0.1 in meteobridge W/m2
02:54 47.8 °F 34.2 °F 29.90 in Calm   5 mph 59% 0.1 in meteobridge W/m2
02:59 47.8 °F 33.8 °F 29.90 in Calm   2 mph 58% 0.11 in meteobridge W/m2
03:04 47.8 °F 33.8 °F 29.89 in Calm   1 mph 58% 0.13 in meteobridge W/m2
03:09 47.8 °F 34.2 °F 29.89 in Calm   5 mph 59% 0.12 in meteobridge W/m2
03:14 47.8 °F 34.2 °F 29.90 in Calm   2 mph 59% 0.11 in meteobridge W/m2
03:19 47.8 °F 34.2 °F 29.89 in Calm   2 mph 59% 0.11 in meteobridge W/m2
03:24 47.8 °F 34.2 °F 29.89 in SE 6 mph 8 mph 59% 0.12 in meteobridge W/m2
03:29 47.8 °F 34.2 °F 29.88 in Calm   5 mph 59% 0.09 in meteobridge W/m2
03:34 47.7 °F 34 °F 29.88 in Calm     59% 0.07 in meteobridge W/m2
03:39 47.7 °F 34 °F 29.88 in Calm     59% 0.06 in meteobridge W/m2
03:44 47.7 °F 34 °F 29.87 in SE 4 mph 8 mph 59% 0.06 in meteobridge W/m2
03:49 47.8 °F 34.2 °F 29.86 in SE 4 mph 4 mph 59% 0.07 in meteobridge W/m2
03:54 47.8 °F 34.2 °F 29.87 in Calm   2 mph 59% 0.06 in meteobridge W/m2
03:59 47.8 °F 34.2 °F 29.87 in SE 8.1 mph 8 mph 59% 0.05 in meteobridge W/m2
04:04 47.8 °F 33.8 °F 29.87 in Calm   4 mph 58% 0.02 in meteobridge W/m2
04:09 47.8 °F 34.2 °F 29.86 in Calm   1 mph 59% 0.02 in meteobridge W/m2
04:14 47.8 °F 34.2 °F 29.86 in Calm   1 mph 59% 0.02 in meteobridge W/m2
04:19 47.8 °F 34.2 °F 29.85 in Calm   5 mph 59% 0.02 in meteobridge W/m2
04:24 47.7 °F 34 °F 29.85 in SE 2 mph 4 mph 59% 0.01 in meteobridge W/m2
04:29 47.7 °F 34 °F 29.84 in East 4 mph 5 mph 59% 0.01 in meteobridge W/m2
04:34 47.7 °F 34 °F 29.84 in SE 0.9 mph 7 mph 59% 0.01 in meteobridge W/m2
04:39 47.7 °F 34 °F 29.83 in Calm   6 mph 59% 0.01 in meteobridge W/m2
04:44 47.5 °F 33.8 °F 29.83 in Calm   4 mph 59% 0.01 in meteobridge W/m2
04:49 47.5 °F 33.8 °F 29.83 in SE 2 mph 7 mph 59% 0.02 in meteobridge W/m2
04:54 47.3 °F 33.6 °F 29.85 in Calm   4 mph 59% 0.08 in meteobridge W/m2
04:59 47.3 °F 33.6 °F 29.83 in SE 4 mph 6 mph 59% 0.15 in meteobridge W/m2
05:04 47.5 °F 33.8 °F 29.83 in Calm   2 mph 59% 0.18 in meteobridge W/m2
05:09 47.5 °F 33.8 °F 29.85 in Calm     59% 0.24 in meteobridge W/m2
05:14 47.5 °F 33.8 °F 29.84 in Calm   1 mph 59% 0.35 in meteobridge W/m2
05:19 47.5 °F 33.8 °F 29.83 in SE 0.9 mph 4 mph 59% 0.45 in meteobridge W/m2
05:24 47.5 °F 33.8 °F 29.83 in SE 4.9 mph 6 mph 59% 0.48 in meteobridge W/m2
05:29 47.5 °F 33.8 °F 29.84 in Calm   8 mph 59% 0.49 in meteobridge W/m2
05:34 47.3 °F 33.6 °F 29.83 in ESE 2 mph 6 mph 59% 0.51 in meteobridge W/m2
05:39 47.5 °F 33.8 °F 29.83 in East 2 mph 8 mph 59% 0.51 in meteobridge W/m2
05:44 47.5 °F 33.8 °F 29.83 in SE 0.9 mph 5 mph 59% 0.52 in meteobridge W/m2
05:49 47.5 °F 33.8 °F 29.84 in Calm   1 mph 59% 0.52 in meteobridge W/m2
05:54 47.5 °F 33.4 °F 29.85 in Calm   1 mph 58% 0.47 in meteobridge W/m2
05:59 47.5 °F 33.8 °F 29.85 in SE 4 mph 5 mph 59% 0.41 in meteobridge W/m2
06:04 47.5 °F 33.8 °F 29.86 in Calm   4 mph 59% 0.37 in meteobridge W/m2
06:09 47.5 °F 33.8 °F 29.87 in Calm   1 mph 59% 0.34 in meteobridge W/m2
06:14 47.3 °F 33.6 °F 29.87 in Calm     59% 0.23 in meteobridge W/m2
06:19 47.3 °F 33.6 °F 29.86 in Calm   4 mph 59% 0.15 in meteobridge W/m2
06:24 47.3 °F 33.6 °F 29.85 in Calm   2 mph 59% 0.13 in meteobridge W/m2
06:29 47.1 °F 33.4 °F 29.85 in Calm   4 mph 59% 0.14 in meteobridge W/m2
06:34 47.1 °F 33.4 °F 29.84 in Calm   7 mph 59% 0.14 in meteobridge W/m2
06:39 47.1 °F 33.4 °F 29.84 in Calm   2 mph 59% 0.16 in meteobridge W/m2
06:44 46.9 °F 33.4 °F 29.84 in Calm   2 mph 59% 0.16 in meteobridge W/m2
06:49 46.9 °F 32.9 °F 29.85 in Calm   1 mph 58% 0.15 in meteobridge W/m2
06:54 46.9 °F 32.9 °F 29.86 in Calm   1 mph 58% 0.16 in meteobridge W/m2
06:59 47.1 °F 33.1 °F 29.85 in Calm     58% 0.16 in meteobridge W/m2
07:04 47.1 °F 33.1 °F 29.86 in Calm     58% 0.16 in meteobridge W/m2
07:09 47.1 °F 33.1 °F 29.85 in Calm   1 mph 58% 0.16 in meteobridge W/m2
07:14 47.1 °F 33.1 °F 29.85 in Calm     58% 0.17 in meteobridge W/m2
07:19 47.1 °F 33.1 °F 29.85 in Calm   1 mph 58% 0.16 in meteobridge W/m2
07:24 47.1 °F 33.1 °F 29.84 in Calm   2 mph 58% 0.17 in meteobridge W/m2
07:29 47.1 °F 33.1 °F 29.85 in Calm     58% 0.17 in meteobridge W/m2
07:34 47.3 °F 33.3 °F 29.85 in Calm     58% 0.16 in meteobridge W/m2
07:39 47.3 °F 33.3 °F 29.85 in Calm   2 mph 58% 0.17 in meteobridge W/m2
07:44 47.1 °F 33.1 °F 29.85 in Calm     58% 0.18 in meteobridge W/m2
07:49 47.1 °F 33.1 °F 29.84 in Calm   1 mph 58% 0.2 in meteobridge W/m2
07:54 47.1 °F 33.1 °F 29.85 in Calm   1 mph 58% 0.19 in meteobridge W/m2
07:59 47.1 °F 33.1 °F 29.85 in SSE 0.9 mph 6 mph 58% 0.19 in meteobridge W/m2
08:04 47.1 °F 33.1 °F 29.84 in Calm     58% 0.19 in meteobridge W/m2
08:09 47.1 °F 33.1 °F 29.83 in Calm   2 mph 58% 0.19 in meteobridge W/m2
08:14 47.1 °F 33.1 °F 29.83 in Calm     58% 0.18 in meteobridge W/m2
08:19 47.1 °F 33.1 °F 29.83 in Calm     58% 0.17 in meteobridge W/m2
08:24 47.3 °F 33.3 °F 29.84 in Calm     58% 0.15 in meteobridge W/m2
08:29 47.3 °F 33.3 °F 29.84 in Calm   1 mph 58% 0.13 in meteobridge W/m2
08:34 47.3 °F 33.3 °F 29.83 in Calm     58% 0.12 in meteobridge W/m2
08:39 47.3 °F 33.3 °F 29.83 in Calm   1 mph 58% 0.1 in meteobridge W/m2
08:44 47.5 °F 33.4 °F 29.83 in Calm     58% 0.08 in meteobridge W/m2
08:49 47.5 °F 33.4 °F 29.83 in Calm   7 mph 58% 0.05 in meteobridge W/m2
08:54 47.7 °F 33.6 °F 29.83 in Calm   2 mph 58% 0.04 in meteobridge W/m2
08:59 47.7 °F 33.6 °F 29.83 in Calm     58% 0.03 in meteobridge W/m2
09:04 47.7 °F 33.3 °F 29.82 in Calm     57% 0.02 in meteobridge W/m2
09:09 47.8 °F 33.8 °F 29.83 in SE 0.9 mph 7 mph 58% 0.01 in meteobridge W/m2
09:14 47.8 °F 33.8 °F 29.83 in Calm   4 mph 58% 0.01 in meteobridge W/m2
09:19 48 °F 33.4 °F 29.82 in Calm   4 mph 57% 0.01 in meteobridge W/m2
09:24 48 °F 33.4 °F 29.83 in East 0.9 mph 4 mph 57% 0.01 in meteobridge W/m2
09:29 48.2 °F 33.6 °F 29.82 in SE 2 mph 5 mph 57% 0.01 in meteobridge W/m2
09:34 48.2 °F 33.6 °F 29.82 in East 0.9 mph 4 mph 57% 0.01 in meteobridge W/m2
09:39 48.4 °F 33.8 °F 29.82 in SE 2 mph 5 mph 57% 0.01 in meteobridge W/m2
09:44 48.6 °F 34 °F 29.82 in Calm   4 mph 57% 0.01 in meteobridge W/m2
09:49 48.6 °F 34 °F 29.82 in Calm   5 mph 57% 0.01 in meteobridge W/m2
09:54 48.7 °F 34.2 °F 29.81 in Calm   4 mph 57% 0.01 in meteobridge W/m2
09:59 48.9 °F 34.3 °F 29.80 in Calm   2 mph 57% 0.01 in meteobridge W/m2
10:04 49.1 °F 34.5 °F 29.80 in Calm   4 mph 57% 0.01 in meteobridge W/m2
10:09 49.1 °F 34.5 °F 29.80 in Calm   6 mph 57% 0.01 in meteobridge W/m2
10:14 49.1 °F 34.5 °F 29.81 in Calm   4 mph 57% 0.01 in meteobridge W/m2
10:19 49.1 °F 34.5 °F 29.80 in Calm     57% 0.01 in meteobridge W/m2
10:24 49.1 °F 34.5 °F 29.81 in SSE 0.9 mph 2 mph 57% 0.01 in meteobridge W/m2
10:29 49.3 °F 34.7 °F 29.81 in Calm   4 mph 57% 0.01 in meteobridge W/m2
10:34 49.3 °F 34.7 °F 29.81 in Calm     57% 0 in meteobridge W/m2
10:39 49.5 °F 34.9 °F 29.81 in SE 2 mph 4 mph 57% 0 in meteobridge W/m2
10:44 49.5 °F 34.9 °F 29.81 in ESE 0.9 mph 5 mph 57% 0 in meteobridge W/m2
10:49 49.5 °F 34.9 °F 29.80 in Calm   1 mph 57% 0 in meteobridge W/m2
10:54 49.6 °F 35.1 °F 29.80 in East 0.9 mph 2 mph 57% 0 in meteobridge W/m2
10:59 49.8 °F 35.2 °F 29.80 in Calm   5 mph 57% 0 in meteobridge W/m2
11:04 49.8 °F 35.2 °F 29.80 in SE 0.9 mph 7 mph 57% 0 in meteobridge W/m2
11:09 50.2 °F 35.6 °F 29.79 in Calm   5 mph 57% 0 in meteobridge W/m2
11:14 50.4 °F 35.8 °F 29.79 in Calm   5 mph 57% 0 in meteobridge W/m2
11:19 50.4 °F 35.8 °F 29.80 in Calm   1 mph 57% 0 in meteobridge W/m2
11:24 50.5 °F 36 °F 29.79 in Calm   5 mph 57% 0 in meteobridge W/m2
11:29 50.5 °F 36 °F 29.79 in Calm   4 mph 57% 0 in meteobridge W/m2
11:34 50.7 °F 36 °F 29.79 in Calm   2 mph 57% 0 in meteobridge W/m2
11:39 50.7 °F 36.5 °F 29.79 in Calm   6 mph 58% 0 in meteobridge W/m2
11:44 50.9 °F 36.7 °F 29.79 in SSE 0.9 mph 5 mph 58% 0 in meteobridge W/m2
11:49 51.1 °F 36.9 °F 29.78 in Calm   2 mph 58% 0 in meteobridge W/m2
11:54 51.1 °F 36.9 °F 29.78 in Calm   1 mph 58% 0 in meteobridge W/m2
11:59 51.3 °F 37.4 °F 29.78 in Calm   1 mph 59% 0 in meteobridge W/m2
12:04 51.4 °F 37.2 °F 29.79 in Calm   1 mph 58% 0 in meteobridge W/m2
12:09 51.4 °F 37.6 °F 29.79 in Calm     59% 0 in meteobridge W/m2
12:14 51.4 °F 37.6 °F 29.78 in SE 0.9 mph 4 mph 59% 0 in meteobridge W/m2
12:19 51.6 °F 37.8 °F 29.78 in Calm   2 mph 59% 0 in meteobridge W/m2
12:24 51.6 °F 38.1 °F 29.78 in SE 0.9 mph 5 mph 60% 0 in meteobridge W/m2
12:29 51.8 °F 38.8 °F 29.78 in SE 2 mph 4 mph 61% 0 in meteobridge W/m2
12:34 52 °F 39 °F 29.78 in Calm   2 mph 61% 0 in meteobridge W/m2
12:39 52.2 °F 39.2 °F 29.78 in Calm     61% 0 in meteobridge W/m2
12:44 52.2 °F 39.6 °F 29.77 in Calm   6 mph 62% 0 in meteobridge W/m2
12:49 52.3 °F 40.1 °F 29.77 in Calm   4 mph 63% 0 in meteobridge W/m2
12:54 52.5 °F 39.9 °F 29.77 in Calm   1 mph 62% 0 in meteobridge W/m2
12:59 52.5 °F 40.3 °F 29.77 in SSE 0.9 mph 7 mph 63% 0 in meteobridge W/m2
13:04 52.5 °F 40.3 °F 29.76 in Calm   2 mph 63% 0 in meteobridge W/m2
13:09 52.5 °F 40.6 °F 29.76 in ESE 4 mph 4 mph 64% 0 in meteobridge W/m2
13:14 52.7 °F 40.8 °F 29.75 in Calm   5 mph 64% 0 in meteobridge W/m2
13:19 52.9 °F 41 °F 29.75 in Calm   2 mph 64% 0 in meteobridge W/m2
13:24 52.9 °F 41 °F 29.75 in Calm     64% 0 in meteobridge W/m2
13:29 53.1 °F 41.5 °F 29.74 in Calm     65% 0 in meteobridge W/m2
13:34 53.1 °F 42.1 °F 29.74 in Calm     66% 0 in meteobridge W/m2
13:39 53.2 °F 42.3 °F 29.74 in Calm   1 mph 66% 0 in meteobridge W/m2
13:44 53.2 °F 42.3 °F 29.74 in SE 0.9 mph 4 mph 66% 0 in meteobridge W/m2
13:49 53.2 °F 42.3 °F 29.74 in Calm     66% 0 in meteobridge W/m2
13:54 53.4 °F 42.8 °F 29.74 in SE 0.9 mph 2 mph 67% 0 in meteobridge W/m2
13:59 53.4 °F 43.2 °F 29.74 in East 0.9 mph 3 mph 68% 0 in meteobridge W/m2
14:04 53.6 °F 43.3 °F 29.73 in Calm   1 mph 68% 0 in meteobridge W/m2
14:09 53.6 °F 43.3 °F 29.73 in Calm   1 mph 68% 0 in meteobridge W/m2
14:14 53.6 °F 43.3 °F 29.73 in SE 0.9 mph 1 mph 68% 0 in meteobridge W/m2
14:19 53.6 °F 43.3 °F 29.73 in Calm   5 mph 68% 0 in meteobridge W/m2
14:24 53.4 °F 43.2 °F 29.73 in Calm   4 mph 68% 0 in meteobridge W/m2
14:29 53.4 °F 43.2 °F 29.73 in SSE 0.9 mph 5 mph 68% 0 in meteobridge W/m2
14:34 53.4 °F 43.2 °F 29.73 in Calm   1 mph 68% 0 in meteobridge W/m2
14:39 53.4 °F 43.2 °F 29.73 in Calm   1 mph 68% 0 in meteobridge W/m2
14:44 53.2 °F 43 °F 29.73 in Calm   1 mph 68% 0 in meteobridge W/m2
14:49 53.2 °F 43 °F 29.73 in SE 0.9 mph 5 mph 68% 0 in meteobridge W/m2
14:54 53.1 °F 42.8 °F 29.73 in Calm   2 mph 68% 0 in meteobridge W/m2
14:59 53.1 °F 42.8 °F 29.73 in SE 2 mph 5 mph 68% 0 in meteobridge W/m2
15:04 53.1 °F 42.8 °F 29.73 in Calm     68% 0 in meteobridge W/m2
15:09 53.1 °F 42.8 °F 29.73 in Calm   1 mph 68% 0 in meteobridge W/m2
15:14 53.1 °F 42.4 °F 29.73 in Calm   1 mph 67% 0 in meteobridge W/m2
15:19 53.2 °F 42.3 °F 29.73 in Calm     66% 0 in meteobridge W/m2
15:24 53.2 °F 41.7 °F 29.72 in Calm     65% 0 in meteobridge W/m2
15:29 53.2 °F 41.7 °F 29.73 in Calm     65% 0 in meteobridge W/m2
15:34 53.2 °F 41.4 °F 29.73 in Calm     64% 0 in meteobridge W/m2
15:39 53.2 °F 41 °F 29.73 in Calm     63% 0 in meteobridge W/m2
15:44 53.2 °F 41 °F 29.73 in Calm     63% 0 in meteobridge W/m2
15:49 53.2 °F 40.6 °F 29.73 in Calm     62% 0 in meteobridge W/m2
15:54 53.2 °F 40.6 °F 29.73 in Calm   1 mph 62% 0 in meteobridge W/m2
15:59 53.2 °F 40.1 °F 29.73 in Calm     61% 0 in meteobridge W/m2
16:04 53.2 °F 40.1 °F 29.73 in Calm     61% 0 in meteobridge W/m2
16:09 53.1 °F 39.6 °F 29.73 in Calm     60% 0 in meteobridge W/m2
16:14 53.2 °F 39.7 °F 29.73 in Calm     60% 0.01 in meteobridge W/m2
16:19 53.1 °F 39.6 °F 29.73 in Calm     60% 0.01 in meteobridge W/m2
16:24 53.1 °F 39.6 °F 29.74 in Calm     60% 0.02 in meteobridge W/m2
16:29 53.1 °F 39.2 °F 29.74 in Calm     59% 0.02 in meteobridge W/m2
16:34 53.1 °F 39.2 °F 29.74 in Calm     59% 0.02 in meteobridge W/m2
16:39 53.1 °F 39.2 °F 29.74 in Calm     59% 0.02 in meteobridge W/m2
16:44 53.1 °F 39.2 °F 29.74 in Calm     59% 0.02 in meteobridge W/m2
16:49 53.1 °F 38.7 °F 29.74 in Calm     58% 0.03 in meteobridge W/m2
16:54 53.1 °F 38.7 °F 29.75 in Calm     58% 0.03 in meteobridge W/m2
16:59 53.1 °F 38.7 °F 29.75 in Calm     58% 0.03 in meteobridge W/m2
17:04 52.9 °F 38.5 °F 29.75 in Calm     58% 0.03 in meteobridge W/m2
17:09 52.9 °F 38.5 °F 29.75 in Calm     58% 0.03 in meteobridge W/m2
17:14 52.7 °F 38.3 °F 29.75 in Calm     58% 0.02 in meteobridge W/m2
17:19 52.7 °F 38.3 °F 29.75 in Calm     58% 0.02 in meteobridge W/m2
17:24 52.5 °F 38.1 °F 29.75 in Calm     58% 0.01 in meteobridge W/m2
17:29 52.5 °F 38.1 °F 29.75 in Calm     58% 0.01 in meteobridge W/m2
17:34 52.5 °F 37.8 °F 29.75 in Calm     57% 0.01 in meteobridge W/m2
17:39 52.5 °F 37.8 °F 29.75 in Calm     57% 0.01 in meteobridge W/m2
17:44 52.3 °F 37.6 °F 29.75 in Calm     57% 0.01 in meteobridge W/m2
17:49 52.3 °F 37.6 °F 29.75 in Calm   1 mph 57% 0 in meteobridge W/m2
17:54 52.2 °F 37.4 °F 29.75 in Calm     57% 0 in meteobridge W/m2
17:59 52.2 °F 37.4 °F 29.75 in Calm     57% 0 in meteobridge W/m2
18:04 52 °F 37.2 °F 29.75 in Calm     57% 0 in meteobridge W/m2
18:09 52 °F 37.2 °F 29.75 in Calm     57% 0 in meteobridge W/m2
18:14 52 °F 37.2 °F 29.75 in Calm     57% 0 in meteobridge W/m2
18:19 51.8 °F 37 °F 29.75 in Calm     57% 0 in meteobridge W/m2
18:24 51.6 °F 36.9 °F 29.75 in Calm     57% 0 in meteobridge W/m2
18:29 51.8 °F 37 °F 29.75 in Calm     57% 0 in meteobridge W/m2
18:34 51.6 °F 36.9 °F 29.75 in Calm     57% 0 in meteobridge W/m2
18:39 51.6 °F 36.9 °F 29.75 in Calm     57% 0 in meteobridge W/m2
18:44 51.6 °F 36.9 °F 29.75 in Calm     57% 0 in meteobridge W/m2
18:49 51.6 °F 36.9 °F 29.75 in Calm     57% 0 in meteobridge W/m2
18:54 51.4 °F 36.7 °F 29.75 in Calm     57% 0 in meteobridge W/m2
18:59 51.4 °F 36.7 °F 29.76 in Calm     57% 0 in meteobridge W/m2
19:04 51.4 °F 36.7 °F 29.76 in Calm     57% 0 in meteobridge W/m2
19:09 51.4 °F 36.7 °F 29.76 in Calm     57% 0 in meteobridge W/m2
19:14 51.4 °F 36.7 °F 29.76 in Calm     57% 0 in meteobridge W/m2
19:19 51.4 °F 36.7 °F 29.77 in Calm     57% 0 in meteobridge W/m2
19:24 51.4 °F 36.7 °F 29.77 in Calm     57% 0 in meteobridge W/m2
19:29 51.4 °F 36.7 °F 29.77 in Calm     57% 0 in meteobridge W/m2
19:34 51.3 °F 36.5 °F 29.77 in Calm     57% 0.01 in meteobridge W/m2
19:39 51.3 °F 36.1 °F 29.77 in Calm     56% 0.01 in meteobridge W/m2
19:44 51.3 °F 36.1 °F 29.77 in Calm     56% 0.01 in meteobridge W/m2
19:49 51.3 °F 36.1 °F 29.77 in Calm     56% 0.01 in meteobridge W/m2
19:54 51.3 °F 36.1 °F 29.77 in Calm     56% 0.01 in meteobridge W/m2
19:59 51.3 °F 36.1 °F 29.77 in Calm     56% 0.01 in meteobridge W/m2
20:04 51.3 °F 36.1 °F 29.78 in Calm     56% 0.01 in meteobridge W/m2
20:09 51.3 °F 36.1 °F 29.77 in Calm     56% 0.01 in meteobridge W/m2
20:14 51.3 °F 36.1 °F 29.77 in Calm     56% 0.01 in meteobridge W/m2
20:19 51.3 °F 36.1 °F 29.78 in Calm     56% 0.01 in meteobridge W/m2
20:24 51.3 °F 36.1 °F 29.77 in Calm     56% 0.01 in meteobridge W/m2
20:29 51.1 °F 36 °F 29.77 in Calm     56% 0.01 in meteobridge W/m2
20:34 51.1 °F 36 °F 29.77 in Calm     56% 0 in meteobridge W/m2
20:39 51.1 °F 36 °F 29.77 in Calm     56% 0 in meteobridge W/m2
20:44 51.1 °F 36 °F 29.78 in Calm     56% 0 in meteobridge W/m2
20:49 51.3 °F 36.1 °F 29.78 in Calm     56% 0 in meteobridge W/m2
20:54 51.3 °F 36.1 °F 29.78 in Calm     56% 0 in meteobridge W/m2
20:59 51.3 °F 36.1 °F 29.78 in Calm     56% 0 in meteobridge W/m2
21:04 51.3 °F 36.1 °F 29.78 in Calm     56% 0 in meteobridge W/m2
21:09 51.3 °F 36.1 °F 29.78 in Calm     56% 0.01 in meteobridge W/m2
21:14 51.3 °F 36.1 °F 29.78 in Calm     56% 0.01 in meteobridge W/m2
21:19 51.1 °F 36 °F 29.78 in Calm     56% 0.01 in meteobridge W/m2
21:24 51.1 °F 36 °F 29.78 in Calm     56% 0.01 in meteobridge W/m2
21:29 51.1 °F 36 °F 29.78 in Calm     56% 0.02 in meteobridge W/m2
21:34 51.1 °F 36 °F 29.77 in Calm     56% 0.02 in meteobridge W/m2
21:39 51.1 °F 36 °F 29.77 in Calm     56% 0.02 in meteobridge W/m2
21:44 51.1 °F 36 °F 29.77 in Calm     56% 0.02 in meteobridge W/m2
21:49 51.1 °F 36 °F 29.77 in Calm     56% 0.02 in meteobridge W/m2
21:54 51.1 °F 36 °F 29.78 in Calm     56% 0.02 in meteobridge W/m2
21:59 51.1 °F 36 °F 29.77 in Calm     56% 0.03 in meteobridge W/m2
22:04 51.1 °F 36 °F 29.78 in Calm     56% 0.03 in meteobridge W/m2
22:09 51.1 °F 36 °F 29.78 in Calm     56% 0.02 in meteobridge W/m2
22:14 51.1 °F 36 °F 29.78 in Calm     56% 0.02 in meteobridge W/m2
22:19 51.1 °F 36 °F 29.78 in Calm     56% 0.02 in meteobridge W/m2
22:24 51.1 °F 36 °F 29.78 in Calm     56% 0.03 in meteobridge W/m2
22:29 51.1 °F 36 °F 29.78 in Calm     56% 0.02 in meteobridge W/m2
22:34 51.1 °F 36 °F 29.78 in Calm     56% 0.02 in meteobridge W/m2
22:39 51.1 °F 35.4 °F 29.79 in Calm     55% 0.02 in meteobridge W/m2
22:44 51.1 °F 35.4 °F 29.79 in Calm     55% 0.02 in meteobridge W/m2
22:49 51.1 °F 35.4 °F 29.79 in Calm     55% 0.02 in meteobridge W/m2
22:54 51.1 °F 35.4 °F 29.79 in Calm     55% 0.02 in meteobridge W/m2
22:59 51.1 °F 35.4 °F 29.79 in Calm     55% 0.01 in meteobridge W/m2
23:04 51.1 °F 35.4 °F 29.78 in Calm     55% 0.01 in meteobridge W/m2
23:09 51.1 °F 35.4 °F 29.78 in Calm     55% 0.01 in meteobridge W/m2
23:14 51.1 °F 35.4 °F 29.78 in Calm     55% 0.01 in meteobridge W/m2
23:19 51.1 °F 35.4 °F 29.78 in Calm     55% 0.02 in meteobridge W/m2
23:24 51.1 °F 35.4 °F 29.78 in Calm     55% 0.01 in meteobridge W/m2
23:29 51.1 °F 35.4 °F 29.79 in Calm     55% 0.01 in meteobridge W/m2
23:34 51.1 °F 35.4 °F 29.79 in Calm     55% 0.01 in meteobridge W/m2
23:39 51.1 °F 35.4 °F 29.78 in Calm     55% 0.01 in meteobridge W/m2
23:44 51.1 °F 35.4 °F 29.79 in Calm     55% 0.01 in meteobridge W/m2
23:49 51.1 °F 35.4 °F 29.79 in Calm     55% 0.01 in meteobridge W/m2
23:54 51.1 °F 35.4 °F 29.78 in Calm     55% 0.02 in meteobridge W/m2
23:59 51.1 °F 35.4 °F 29.78 in Calm     55% 0.02 in meteobridge W/m2
EllijayWeather
Compliments of Weather Underground - 2.5 mb